Location: Bezawada
(16.5136°N, 80.6297°E)
Time: 18:30:13
(UTC+00:00)

GPS 2-17 Rocket1 - Pass Details

Date: 27 February 2020
Orbit: 571 x 659 km, 20.3° (Epoch: 27 March)

Event Time Altitude Azimuth Distance (km) Brightness Sun altitude
Exits shadow 23:43:20 30° 234° (SW) 1,125 4.0 -18.3°
Maximum altitude 23:45:31 62° 164° (SSE) 706 3.4 -17.8°
Drops below altitude 10° 23:50:14 10° 83° (E) 2,025 7.0 -16.6°
Sets 23:52:39 0° 80° (E) 2,946 8.1 -16.1°
